Location: Newark
(0.5300°S, 127.4800°E)
Time: 04:27:37
(UTC+00:00)

Vanguard 3 - Pass Details

Date: 18 September 2019
Orbit: 508 x 3262 km, 33.3° (Epoch: 17 October)

Event Time Altitude Azimuth Distance (km) Brightness Sun altitude
Rises 10:07:32 0° 287° (WNW) 5,163 13.0 -10.8°
Reaches altitude 10° 10:12:12 10° 277° (W) 3,644 12.0 -12.0°
Maximum altitude 10:19:11 27° 223° (SW) 1,879 9.5 -13.7°
Drops below altitude 10° 10:23:48 10° 165° (SSE) 2,331 9.3 -14.9°
Enters shadow 10:25:47 - 153° (SSE) 2,911 9.7 -15.4°
Sets 10:26:08 0° 151° (SSE) 3,029 - -15.5°
